SCP
0 0 0 0 0 0 0 0 0 0 0 0 0 0 0 0 0 0 0 0 0 0 0 0 0 0 0 0 0 0 0 0 0 0 -0 0 0 0 0 0 0 0 0 0 0 0 0
0 0 0 0 0 0 0 0 0 0 0 0 0 0 0 0 0 0 0 0 0 0 0 0 0 0 0 0 0 0 0 0 0 0 -0 0 0 0 0 0 0 0 -0 0 0 0 0
0 0 0 0 0 0 0 0 0 0 0 0 0 0 0 0 0 0 0 0 0 0 0 0 0 0 0 -0 0 0 0 0 -0 0 -0 0 0 0 0 0 0 0 0 0 0 0 0
0 0 0 0 0 0 0 0 0 0 0 0 0 0 0 0 0 0 0 0 0 0 0 0 0 0 0 0 -0 -0 -0 0 0 0 0 0 0 0 -0 -0 0 0 0 0 0 0 0
0 0 0 0 0 0 0 0 0 0 0 0 0 0 0 0 0 0 0 0 0 0 0 0 0 0 0 0 0 -0 -0 -0 -0 0 0 0 0 0 0 0 0 0 0 0 0 0 0
0 0 0 0 0 0 0 0 0 0 0 0 0 0 -0 -0 -0 -0 0 0 0 0 0 0 0 0 -0 0 0 -0 -0 0 0 0 0 0 0 0 0 0 0 0 0 0 0 -0 -0
0 0 0 0 0 0 0 0 0 0 0 0 0 0 -0 0 -0 -0 0 0 0 0 0 0 0 0 0 -0 0 0 0 0 0 0 0 0 0 0 0 0 0 0 -0 -0 0 0 0
0 0 0 0 0 0 0 0 0 0 0 0 0 -0 -0 0 0 -0 0 -0 -0 0 0 -0 0 0 -0 0 0 0 0 0 0 0 0 0 0 0 0 0 0 0 0 0 0 0 0
0 0 0 0 0 0 0 0 0 0 0 -0 -0 -0 -0 -0 -0 0 -0 -0 -0 -0 0 -0 -0 0 0 0 -0 0 0 0 0 0 0 0 0 0 0 0 0 0 0 0 0 0 0
0 0 0 0 0 0 0 0 0 0 0 -0 -0 -0 -0 -0 0 0 -0 -0 -0 -0 0 0 -0 -0 0 0 -0 -0 0 0 0 0 0 0 0 0 -0 -0 0 0 0 0 0 0 0
0 0 0 0 0 0 0 0 0 0 -0 -0 -0 -0 -0 -0 -0 -0 0 -0 -0 0 0 0 -0 0 -0 0 0 0 0 0 0 0 0 0 0 0 0 0 0 0 0 0 0 0 0
0 0 0 0 0 0 0 0 0 0 -0 -0 -0 -0 -0 -0 0 -0 -0 -0 -0 0 0 -0 0 0 -0 -0 0 0 0 0 0 0 0 0 0 0 0 0 0 0 0 0 0 0 0
0 0 0 0 0 0 0 0 0 0 -0 -0 -0 -0 0 -0 -0 0 -0 0 0 0 -0 -0 0 -0 -0 -0 -0 -0 -0 -0 0 0 0 0 0 0 0 0 0 0 0 0 0 0 0
0 0 0 0 0 0 0 0 0 0 -0 -0 -0 -0 -0 0 0 -0 0 0 0 0 -0 0 -0 0 -0 0 -0 -0 0 -0 0 0 0 0 0 0 0 0 0 0 0 0 0 0 0
0 0 0 0 0 0 0 0 0 -0 -0 -0 -0 0 -0 0 0 0 0 0 0 0 -0 -0 0 0 0 0 0 -0 0 0 0 0 0 0 0 0 0 0 0 0 0 0 0 0 0
0 0 0 0 0 0 0 0 0 0 -0 -0 0 -0 -0 0 0 0 0 0 0 0 0 0 0 0 0 0 0 0 0 0 0 0 0 0 0 0 0 0 0 0 0 0 0 0 0
0 0 0 0 0 0 0 0 0 0 -0 -0 0 0 -0 0 0 0 0 0 0 0 0 0 0 0 0 0 0 0 0 0 0 0 0 0 0 0 0 0 0 0 0 0 0 0 0
0 0 0 0 0 0 0 0 0 0 -0 0 0 0 0 0 0 0 -0 0 -0 0 0 0 0 0 0 0 0 0 0 0 0 0 0 0 0 0 0 0 0 0 0 0 0 0 0
0 0 0 0 0 0 0 0 0 0 -0 0 0 0 -0 0 0 0 -0 -0 0 0 0 0 0 0 0 0 0 0 0 0 0 0 0 0 0 0 0 0 0 0 0 0 0 0 0
0 0 0 0 0 0 0 0 0 0 0 0 0 0 0 0 0 0 0 0 0 0 0 0 0 0 0 0 0 0 0 0 0 0 0 0 0 0 0 0 0 0 0 0 0 0 0
0 0 0 0 0 0 0 0 0 0 0 0 0 0 0 0 0 0 0 0 0 0 0 0 0 0 0 0 0 0 0 0 0 0 0 0 0 0 0 0 0 0 0 0 0 0 0
0 0 0 0 0 0 0 0 0 0 0 0 0 0 0 0 0 0 0 0 0 0 0 0 0 0 0 0 0 0 0 0 0 0 0 0 0 0 0 0 0 0 0 0 0 0 0
0 0 0 0 0 0 0 0 0 0 0 0 0 0 0 0 0 0 0 0 0 0 0 0 0 0 0 0 0 0 0 0 0 0 0 0 0 0 0 0 0 0 0 0 0 0 0
0 0 0 0 0 0 0 0 0 0 0 0 0 0 0 0 0 0 0 0 0 0 0 0 0 0 0 0 0 0 0 0 0 0 0 0 0 0 0 0 0 0 0 0 0 0 0
0 0 0 0 0 0 0 0 0 0 0 0 0 0 0 0 0 0 0 0 0 0 0 0 0 0 0 0 0 0 0 0 0 0 0 0 0 0 0 0 0 0 0 0 0 0 0
0 0 0 0 0 0 0 0 0 0 0 0 0 0 0 0 0 0 0 0 0 0 0 0 0 0 0 0 0 0 0 0 0 0 0 0 0 0 0 0 0 0 0 0 0 0 0
0 0 0 0 0 0 0 0 0 0 0 0 0 0 0 0 0 0 0 0 0 0 0 0 0 0 0 0 0 0 0 0 0 0 0 0 0 0 0 0 0 0 0 0 0 0 0
0 0 0 0 0 0 0 0 0 0 0 0 0 0 0 0 0 0 0 0 0 0 0 0 0 0 0 0 0 0 0 0 0 0 0 0 0 0 0 0 0 0 0 0 0 0 0
0 0 0 0 0 0 0 0 0 0 0 0 0 0 0 0 0 -0 0 0 0 0 0 0 0 0 0 0 0 0 0 0 0 0 0 0 0 0 0 0 0 0 0 0 0 0 0
Wind_Speed_500mb
36 36 37 37 38 39 39 40 40 40 41 44 44 46 48 50 53 50 48 47 46 37 29 27 28 29 26 15 36 22 20 28 9 27 38 39 30 47 17 28 45 35 34 54 65 60 67
41 39 40 41 40 39 41 42 42 41 42 44 47 50 51 52 52 53 52 47 46 43 30 26 27 29 22 15 4 10 22 9 14 28 39 41 27 38 34 37 28 45 47 50 52 63 59
41 41 43 44 42 42 42 42 44 45 46 48 49 52 54 55 54 54 50 48 45 43 28 26 26 27 28 51 4 0 13 12 8 17 32 35 45 42 42 17 69 54 19 22 24 22 15
38 39 41 43 44 45 46 46 46 47 48 50 52 53 55 57 57 56 52 46 43 40 26 24 25 18 26 9 21 18 23 8 12 22 26 38 47 48 32 36 39 11 11 6 13 14 30
42 41 43 46 46 45 45 46 48 49 50 51 49 50 53 60 64 64 61 48 42 32 20 20 17 16 26 11 31 27 27 23 19 28 33 29 29 27 31 11 10 10 7 8 15 17 21
44 45 46 45 43 43 44 45 46 47 48 47 47 53 60 63 74 76 61 41 34 21 13 12 15 13 26 21 26 25 29 28 21 22 26 15 10 5 9 6 10 13 10 13 18 34 23
47 46 43 44 44 45 46 44 44 46 47 48 52 56 63 71 78 61 49 22 11 5 26 31 27 26 28 12 23 21 31 22 26 26 13 28 6 14 22 23 25 24 16 26 24 33 25
48 45 43 43 46 48 44 44 47 51 52 55 55 63 65 77 62 53 37 20 31 14 19 42 48 50 50 30 22 24 34 22 17 15 17 8 16 25 30 31 31 30 24 22 17 11 7
44 42 41 42 48 46 43 45 52 56 58 58 59 65 74 62 39 24 21 21 17 14 12 31 54 52 55 28 26 26 37 35 16 18 19 17 25 31 31 27 27 23 18 8 11 19 15
43 42 41 43 48 45 43 48 55 58 59 60 60 61 72 46 9 18 26 27 9 2 8 13 20 29 34 22 14 36 34 32 17 19 22 16 25 29 30 23 12 11 15 8 13 16 8
42 41 42 44 46 46 45 52 58 59 61 60 58 60 52 35 18 8 21 18 14 14 7 4 18 23 28 23 16 24 38 42 21 21 17 27 18 16 17 12 14 13 17 15 16 12 11
41 42 43 44 46 47 47 53 60 63 63 62 59 58 40 20 14 9 24 15 11 2 11 9 17 15 17 25 21 11 20 17 19 17 27 24 41 13 14 16 9 15 9 10 11 1 4
39 42 41 43 45 49 51 56 61 63 64 63 58 40 27 17 14 8 14 12 4 7 14 24 14 29 24 23 23 22 14 10 10 6 13 16 26 26 28 11 15 14 5 7 9 8 9
40 37 42 40 44 48 51 56 62 61 64 66 57 24 16 10 9 10 12 4 6 15 24 22 27 14 20 26 23 30 28 17 17 13 4 5 13 9 10 6 13 15 9 10 13 9 10
37 39 38 42 46 47 49 57 59 65 65 69 49 16 21 1 4 3 10 5 6 16 23 26 19 13 8 19 17 22 11 10 12 22 15 10 22 18 26 20 12 12 12 12 1 4 2
35 36 39 42 47 48 48 54 56 62 62 60 49 31 17 6 2 9 4 10 2 14 17 15 11 21 21 16 8 14 6 11 11 12 14 9 7 13 5 14 14 12 10 9 7 3 10
33 37 44 50 57 50 47 49 53 60 58 52 24 15 3 9 8 8 6 11 4 18 21 12 16 15 18 16 17 6 3 10 15 20 8 4 9 11 12 5 8 10 7 8 12 13 9
40 43 48 53 53 45 39 41 46 56 59 48 13 6 7 4 2 7 6 18 24 12 26 15 10 13 17 17 14 13 17 9 23 13 9 3 4 5 11 16 19 17 17 9 5 15 6
47 46 47 53 52 45 38 35 39 46 54 62 35 14 9 10 2 5 8 23 38 11 14 13 13 19 16 14 10 14 12 10 20 14 7 12 5 6 12 11 13 8 8 8 6 5 18
53 49 45 48 52 40 38 32 35 37 41 46 14 7 4 5 18 11 15 12 16 17 25 23 13 10 18 16 15 12 14 11 13 15 11 10 5 5 9 16 24 15 14 10 7 5 8
45 46 42 47 50 41 33 31 33 31 32 37 7 5 11 7 11 8 11 10 12 11 21 14 9 17 11 5 15 10 16 17 14 7 5 7 7 10 16 25 34 36 35 29 25 27 18
38 43 45 47 46 39 36 31 30 31 28 14 13 12 19 22 24 8 7 7 17 16 13 12 12 17 12 4 10 18 18 11 8 6 6 8 6 11 16 27 35 41 35 33 36 29 38
38 43 47 48 49 46 37 29 26 27 23 9 21 16 15 22 12 11 4 6 7 6 3 16 13 11 11 12 17 24 28 25 19 10 1 7 3 6 7 18 24 16 27 30 28 16 15
39 44 45 49 46 44 27 23 20 19 16 13 11 17 8 9 13 17 23 12 7 8 6 17 17 4 15 27 35 34 46 44 34 28 17 7 4 4 7 12 10 10 12 15 4 26 23
38 39 40 39 30 21 14 13 15 15 14 12 10 9 9 8 22 25 23 15 18 15 5 3 16 8 18 23 8 13 8 4 15 27 21 19 8 3 4 5 19 22 7 7 7 10 13
36 40 40 33 23 20 18 15 16 17 12 9 6 5 6 10 2 28 19 26 8 8 12 15 9 14 7 5 5 6 5 6 2 6 11 17 17 7 3 8 5 1 9 29 10 3 14
35 34 35 36 21 21 21 18 14 13 11 9 8 6 4 10 24 26 10 7 10 9 5 16 10 11 6 3 5 6 6 6 4 3 5 9 8 17 11 8 13 15 9 25 7 6 6
34 29 33 36 28 23 23 21 14 14 15 11 9 9 6 9 41 21 11 12 6 2 4 11 12 6 5 3 5 5 5 5 5 4 8 6 6 5 8 10 9 23 10 7 11 7 17
30 31 32 34 32 24 25 22 20 18 17 17 8 13 14 16 22 37 32 21 30 19 12 7 4 3 5 5 5 6 6 5 7 4 4 3 4 3 7 5 13 13 7 18 27 33 36
Wind_Direction_500mb
333 335 334 335 334 331 331 331 329 327 326 326 327 327 327 326 327 327 329 330 333 318 299 297 303 309 312 289 265 286 291 301 239 203 220 214 220 254 237 219 228 222 233 234 239 253 263
328 331 328 329 326 326 327 325 323 322 321 322 322 322 321 320 319 318 318 321 323 326 297 290 294 299 298 264 210 247 315 288 225 212 220 211 226 237 261 223 223 231 225 233 226 235 248
327 326 328 326 323 322 321 320 319 319 319 318 318 319 317 316 314 313 311 311 313 318 294 285 287 288 270 251 176 169 304 360 175 220 198 205 233 248 259 253 237 248 243 230 234 242 264
330 329 329 327 323 321 321 321 319 319 319 319 321 320 318 316 316 314 309 306 302 307 287 280 282 262 258 283 223 231 215 256 237 241 244 250 261 257 276 290 265 263 246 210 246 231 257
333 334 332 329 327 325 324 323 324 323 321 321 322 321 321 318 316 312 307 301 294 296 278 273 262 233 265 289 224 227 215 225 212 240 245 262 293 270 293 299 309 280 202 272 278 251 215
329 330 332 332 331 331 330 329 329 329 327 328 328 326 322 319 317 313 305 292 282 276 262 235 187 275 252 235 206 214 205 228 194 218 242 262 294 295 288 294 235 249 200 225 225 241 236
326 329 334 334 335 335 336 336 336 335 333 332 328 327 323 322 320 314 307 285 256 195 201 207 201 219 285 275 196 200 198 224 197 208 215 209 179 226 237 241 245 255 261 222 237 242 222
325 328 331 333 334 335 336 336 338 334 332 331 328 327 327 324 324 312 294 239 212 320 270 259 241 251 267 286 201 210 194 209 244 232 211 256 229 239 224 233 237 251 262 277 283 313 333
321 325 327 330 331 331 333 334 334 333 332 330 330 328 330 327 334 339 306 274 269 349 282 282 233 229 239 253 252 206 197 198 232 227 253 212 237 232 249 250 249 242 241 294 312 314 318
320 324 328 330 331 333 333 334 334 331 332 332 331 330 331 330 2 353 319 347 32 99 292 261 190 222 217 231 271 234 219 199 219 249 250 243 251 256 249 240 265 295 306 279 294 302 266
318 322 324 328 331 329 331 335 334 331 331 333 332 332 328 315 322 331 358 17 10 236 289 202 145 142 179 186 285 199 224 208 220 250 242 264 281 289 301 247 234 249 287 267 248 245 264
318 321 323 323 326 331 329 331 334 333 332 334 330 332 319 308 293 4 354 358 353 270 244 209 139 169 136 206 256 133 212 258 203 241 270 270 294 300 284 322 291 289 265 297 292 206 325
319 320 320 322 325 329 330 332 333 332 334 336 329 327 299 279 247 18 336 320 263 238 124 301 184 157 175 192 231 169 194 167 163 243 271 294 286 288 298 313 329 356 103 330 325 323 221
320 322 321 327 329 330 332 331 332 332 335 336 330 313 278 316 223 340 318 314 252 288 11 227 8 175 189 203 215 198 179 190 209 225 238 228 292 302 333 240 213 271 162 168 226 231 261
323 326 326 327 329 330 331 332 334 334 337 336 333 326 279 155 32 123 267 253 269 320 21 355 327 281 8 46 55 289 266 230 204 193 189 218 236 296 302 292 312 313 290 228 35 315 10
333 328 327 327 325 327 331 332 334 335 337 341 333 334 296 120 170 204 274 242 207 347 17 346 341 20 15 350 68 297 333 60 37 82 60 1 335 270 43 16 312 292 294 318 352 326 287
327 325 326 327 326 321 326 331 337 336 340 344 335 330 187 164 244 246 244 317 355 339 37 27 349 332 338 2 350 319 331 55 21 2 344 211 149 286 359 191 259 322 316 286 181 149 184
317 318 322 325 328 328 327 331 339 338 342 351 18 288 200 170 238 69 6 306 296 21 22 3 353 7 8 9 356 347 19 33 25 351 347 47 60 265 271 305 304 274 267 240 179 289 253
308 311 317 320 329 328 328 331 338 341 344 347 337 275 240 176 286 133 195 275 271 48 40 20 350 21 0 4 345 5 53 60 0 38 38 341 323 346 317 280 282 63 32 45 41 217 228
305 306 308 312 321 321 328 328 331 337 337 340 325 307 48 251 48 25 355 336 353 88 61 31 344 4 30 14 335 312 317 77 32 68 41 7 312 212 223 283 305 292 279 281 119 272 349
306 304 304 305 313 311 314 321 329 328 331 333 272 329 11 321 4 4 313 305 305 38 32 39 359 74 46 338 335 294 19 345 2 150 38 26 255 270 286 295 289 282 280 267 208 218 225
297 297 298 300 306 303 302 305 317 327 328 334 319 8 330 297 304 296 243 333 39 27 30 329 32 23 357 275 285 301 317 347 296 97 65 358 293 325 294 280 276 275 265 260 257 242 236
291 291 299 298 302 301 289 294 307 318 329 354 338 333 0 292 302 285 246 82 16 30 82 86 17 359 330 329 344 307 299 280 258 272 243 171 239 359 265 317 344 302 250 251 259 247 253
305 303 303 302 303 303 287 279 292 300 310 334 356 354 320 297 324 344 354 64 5 18 33 346 319 304 354 332 318 292 264 250 245 250 222 168 167 154 275 286 251 270 349 34 91 44 11
310 311 311 313 311 315 314 277 281 286 287 292 307 13 322 304 321 323 353 1 11 338 235 215 66 57 341 323 292 305 289 182 249 236 202 195 180 205 252 259 293 306 357 45 39 59 29
310 312 315 313 302 288 282 280 271 271 267 292 226 267 298 294 135 347 347 26 37 349 2 57 48 357 325 260 286 288 291 349 350 299 324 172 164 172 224 274 278 122 348 343 28 142 18
310 311 319 317 281 277 271 273 276 250 258 264 236 272 278 284 287 10 345 330 349 36 340 327 7 346 353 278 283 263 265 39 296 251 219 154 184 211 220 234 280 360 44 325 227 203 307
309 313 316 312 299 263 257 262 247 247 238 247 198 257 232 281 284 295 358 336 330 193 224 0 335 22 320 269 276 341 290 20 303 279 321 192 183 212 197 212 222 1 34 28 309 269 299
316 318 314 310 303 259 249 248 242 241 237 244 217 258 270 263 258 289 276 279 251 260 248 211 158 196 322 300 32 310 336 278 306 287 221 264 199 251 196 288 217 297 296 350 8 8 358
Wind_Speed_850mb
36 36 37 37 38 39 39 40 40 40 41 44 44 46 48 50 53 50 48 47 46 37 29 27 28 29 26 15 36 22 20 28 9 27 38 39 30 47 17 28 45 35 34 54 65 60 67
41 39 40 41 40 39 41 42 42 41 42 44 47 50 51 52 52 53 52 47 46 43 30 26 27 29 22 15 4 10 22 9 14 28 39 41 27 38 34 37 28 45 47 50 52 63 59
41 41 43 44 42 42 42 42 44 45 46 48 49 52 54 55 54 54 50 48 45 43 28 26 26 27 28 51 4 0 13 12 8 17 32 35 45 42 42 17 69 54 19 22 24 22 15
38 39 41 43 44 45 46 46 46 47 48 50 52 53 55 57 57 56 52 46 43 40 26 24 25 18 26 9 21 18 23 8 12 22 26 38 47 48 32 36 39 11 11 6 13 14 30
42 41 43 46 46 45 45 46 48 49 50 51 49 50 53 60 64 64 61 48 42 32 20 20 17 16 26 11 31 27 27 23 19 28 33 29 29 27 31 11 10 10 7 8 15 17 21
44 45 46 45 43 43 44 45 46 47 48 47 47 53 60 63 74 76 61 41 34 21 13 12 15 13 26 21 26 25 29 28 21 22 26 15 10 5 9 6 10 13 10 13 18 34 23
47 46 43 44 44 45 46 44 44 46 47 48 52 56 63 71 78 61 49 22 11 5 26 31 27 26 28 12 23 21 31 22 26 26 13 28 6 14 22 23 25 24 16 26 24 33 25
48 45 43 43 46 48 44 44 47 51 52 55 55 63 65 77 62 53 37 20 31 14 19 42 48 50 50 30 22 24 34 22 17 15 17 8 16 25 30 31 31 30 24 22 17 11 7
44 42 41 42 48 46 43 45 52 56 58 58 59 65 74 62 39 24 21 21 17 14 12 31 54 52 55 28 26 26 37 35 16 18 19 17 25 31 31 27 27 23 18 8 11 19 15
43 42 41 43 48 45 43 48 55 58 59 60 60 61 72 46 9 18 26 27 9 2 8 13 20 29 34 22 14 36 34 32 17 19 22 16 25 29 30 23 12 11 15 8 13 16 8
42 41 42 44 46 46 45 52 58 59 61 60 58 60 52 35 18 8 21 18 14 14 7 4 18 23 28 23 16 24 38 42 21 21 17 27 18 16 17 12 14 13 17 15 16 12 11
41 42 43 44 46 47 47 53 60 63 63 62 59 58 40 20 14 9 24 15 11 2 11 9 17 15 17 25 21 11 20 17 19 17 27 24 41 13 14 16 9 15 9 10 11 1 4
39 42 41 43 45 49 51 56 61 63 64 63 58 40 27 17 14 8 14 12 4 7 14 24 14 29 24 23 23 22 14 10 10 6 13 16 26 26 28 11 15 14 5 7 9 8 9
40 37 42 40 44 48 51 56 62 61 64 66 57 24 16 10 9 10 12 4 6 15 24 22 27 14 20 26 23 30 28 17 17 13 4 5 13 9 10 6 13 15 9 10 13 9 10
37 39 38 42 46 47 49 57 59 65 65 69 49 16 21 1 4 3 10 5 6 16 23 26 19 13 8 19 17 22 11 10 12 22 15 10 22 18 26 20 12 12 12 12 1 4 2
35 36 39 42 47 48 48 54 56 62 62 60 49 31 17 6 2 9 4 10 2 14 17 15 11 21 21 16 8 14 6 11 11 12 14 9 7 13 5 14 14 12 10 9 7 3 10
33 37 44 50 57 50 47 49 53 60 58 52 24 15 3 9 8 8 6 11 4 18 21 12 16 15 18 16 17 6 3 10 15 20 8 4 9 11 12 5 8 10 7 8 12 13 9
40 43 48 53 53 45 39 41 46 56 59 48 13 6 7 4 2 7 6 18 24 12 26 15 10 13 17 17 14 13 17 9 23 13 9 3 4 5 11 16 19 17 17 9 5 15 6
47 46 47 53 52 45 38 35 39 46 54 62 35 14 9 10 2 5 8 23 38 11 14 13 13 19 16 14 10 14 12 10 20 14 7 12 5 6 12 11 13 8 8 8 6 5 18
53 49 45 48 52 40 38 32 35 37 41 46 14 7 4 5 18 11 15 12 16 17 25 23 13 10 18 16 15 12 14 11 13 15 11 10 5 5 9 16 24 15 14 10 7 5 8
45 46 42 47 50 41 33 31 33 31 32 37 7 5 11 7 11 8 11 10 12 11 21 14 9 17 11 5 15 10 16 17 14 7 5 7 7 10 16 25 34 36 35 29 25 27 18
38 43 45 47 46 39 36 31 30 31 28 14 13 12 19 22 24 8 7 7 17 16 13 12 12 17 12 4 10 18 18 11 8 6 6 8 6 11 16 27 35 41 35 33 36 29 38
38 43 47 48 49 46 37 29 26 27 23 9 21 16 15 22 12 11 4 6 7 6 3 16 13 11 11 12 17 24 28 25 19 10 1 7 3 6 7 18 24 16 27 30 28 16 15
39 44 45 49 46 44 27 23 20 19 16 13 11 17 8 9 13 17 23 12 7 8 6 17 17 4 15 27 35 34 46 44 34 28 17 7 4 4 7 12 10 10 12 15 4 26 23
38 39 40 39 30 21 14 13 15 15 14 12 10 9 9 8 22 25 23 15 18 15 5 3 16 8 18 23 8 13 8 4 15 27 21 19 8 3 4 5 19 22 7 7 7 10 13
36 40 40 33 23 20 18 15 16 17 12 9 6 5 6 10 2 28 19 26 8 8 12 15 9 14 7 5 5 6 5 6 2 6 11 17 17 7 3 8 5 1 9 29 10 3 14
35 34 35 36 21 21 21 18 14 13 11 9 8 6 4 10 24 26 10 7 10 9 5 16 10 11 6 3 5 6 6 6 4 3 5 9 8 17 11 8 13 15 9 25 7 6 6
34 29 33 36 28 23 23 21 14 14 15 11 9 9 6 9 41 21 11 12 6 2 4 11 12 6 5 3 5 5 5 5 5 4 8 6 6 5 8 10 9 23 10 7 11 7 17
30 31 32 34 32 24 25 22 20 18 17 17 8 13 14 16 22 37 32 21 30 19 12 7 4 3 5 5 5 6 6 5 7 4 4 3 4 3 7 5 13 13 7 18 27 33 36
Wind_Direction_850mb
333 335 334 335 334 331 331 331 329 327 326 326 327 327 327 326 327 327 329 330 333 318 299 297 303 309 312 289 265 286 291 301 239 203 220 214 220 254 237 219 228 222 233 234 239 253 263
328 331 328 329 326 326 327 325 323 322 321 322 322 322 321 320 319 318 318 321 323 326 297 290 294 299 298 264 210 247 315 288 225 212 220 211 226 237 261 223 223 231 225 233 226 235 248
327 326 328 326 323 322 321 320 319 319 319 318 318 319 317 316 314 313 311 311 313 318 294 285 287 288 270 251 176 169 304 360 175 220 198 205 233 248 259 253 237 248 243 230 234 242 264
330 329 329 327 323 321 321 321 319 319 319 319 321 320 318 316 316 314 309 306 302 307 287 280 282 262 258 283 223 231 215 256 237 241 244 250 261 257 276 290 265 263 246 210 246 231 257
333 334 332 329 327 325 324 323 324 323 321 321 322 321 321 318 316 312 307 301 294 296 278 273 262 233 265 289 224 227 215 225 212 240 245 262 293 270 293 299 309 280 202 272 278 251 215
329 330 332 332 331 331 330 329 329 329 327 328 328 326 322 319 317 313 305 292 282 276 262 235 187 275 252 235 206 214 205 228 194 218 242 262 294 295 288 294 235 249 200 225 225 241 236
326 329 334 334 335 335 336 336 336 335 333 332 328 327 323 322 320 314 307 285 256 195 201 207 201 219 285 275 196 200 198 224 197 208 215 209 179 226 237 241 245 255 261 222 237 242 222
325 328 331 333 334 335 336 336 338 334 332 331 328 327 327 324 324 312 294 239 212 320 270 259 241 251 267 286 201 210 194 209 244 232 211 256 229 239 224 233 237 251 262 277 283 313 333
321 325 327 330 331 331 333 334 334 333 332 330 330 328 330 327 334 339 306 274 269 349 282 282 233 229 239 253 252 206 197 198 232 227 253 212 237 232 249 250 249 242 241 294 312 314 318
320 324 328 330 331 333 333 334 334 331 332 332 331 330 331 330 2 353 319 347 32 99 292 261 190 222 217 231 271 234 219 199 219 249 250 243 251 256 249 240 265 295 306 279 294 302 266
318 322 324 328 331 329 331 335 334 331 331 333 332 332 328 315 322 331 358 17 10 236 289 202 145 142 179 186 285 199 224 208 220 250 242 264 281 289 301 247 234 249 287 267 248 245 264
318 321 323 323 326 331 329 331 334 333 332 334 330 332 319 308 293 4 354 358 353 270 244 209 139 169 136 206 256 133 212 258 203 241 270 270 294 300 284 322 291 289 265 297 292 206 325
319 320 320 322 325 329 330 332 333 332 334 336 329 327 299 279 247 18 336 320 263 238 124 301 184 157 175 192 231 169 194 167 163 243 271 294 286 288 298 313 329 356 103 330 325 323 221
320 322 321 327 329 330 332 331 332 332 335 336 330 313 278 316 223 340 318 314 252 288 11 227 8 175 189 203 215 198 179 190 209 225 238 228 292 302 333 240 213 271 162 168 226 231 261
323 326 326 327 329 330 331 332 334 334 337 336 333 326 279 155 32 123 267 253 269 320 21 355 327 281 8 46 55 289 266 230 204 193 189 218 236 296 302 292 312 313 290 228 35 315 10
333 328 327 327 325 327 331 332 334 335 337 341 333 334 296 120 170 204 274 242 207 347 17 346 341 20 15 350 68 297 333 60 37 82 60 1 335 270 43 16 312 292 294 318 352 326 287
327 325 326 327 326 321 326 331 337 336 340 344 335 330 187 164 244 246 244 317 355 339 37 27 349 332 338 2 350 319 331 55 21 2 344 211 149 286 359 191 259 322 316 286 181 149 184
317 318 322 325 328 328 327 331 339 338 342 351 18 288 200 170 238 69 6 306 296 21 22 3 353 7 8 9 356 347 19 33 25 351 347 47 60 265 271 305 304 274 267 240 179 289 253
308 311 317 320 329 328 328 331 338 341 344 347 337 275 240 176 286 133 195 275 271 48 40 20 350 21 0 4 345 5 53 60 0 38 38 341 323 346 317 280 282 63 32 45 41 217 228
305 306 308 312 321 321 328 328 331 337 337 340 325 307 48 251 48 25 355 336 353 88 61 31 344 4 30 14 335 312 317 77 32 68 41 7 312 212 223 283 305 292 279 281 119 272 349
306 304 304 305 313 311 314 321 329 328 331 333 272 329 11 321 4 4 313 305 305 38 32 39 359 74 46 338 335 294 19 345 2 150 38 26 255 270 286 295 289 282 280 267 208 218 225
297 297 298 300 306 303 302 305 317 327 328 334 319 8 330 297 304 296 243 333 39 27 30 329 32 23 357 275 285 301 317 347 296 97 65 358 293 325 294 280 276 275 265 260 257 242 236
291 291 299 298 302 301 289 294 307 318 329 354 338 333 0 292 302 285 246 82 16 30 82 86 17 359 330 329 344 307 299 280 258 272 243 171 239 359 265 317 344 302 250 251 259 247 253
305 303 303 302 303 303 287 279 292 300 310 334 356 354 320 297 324 344 354 64 5 18 33 346 319 304 354 332 318 292 264 250 245 250 222 168 167 154 275 286 251 270 349 34 91 44 11
310 311 311 313 311 315 314 277 281 286 287 292 307 13 322 304 321 323 353 1 11 338 235 215 66 57 341 323 292 305 289 182 249 236 202 195 180 205 252 259 293 306 357 45 39 59 29
310 312 315 313 302 288 282 280 271 271 267 292 226 267 298 294 135 347 347 26 37 349 2 57 48 357 325 260 286 288 291 349 350 299 324 172 164 172 224 274 278 122 348 343 28 142 18
310 311 319 317 281 277 271 273 276 250 258 264 236 272 278 284 287 10 345 330 349 36 340 327 7 346 353 278 283 263 265 39 296 251 219 154 184 211 220 234 280 360 44 325 227 203 307
309 313 316 312 299 263 257 262 247 247 238 247 198 257 232 281 284 295 358 336 330 193 224 0 335 22 320 269 276 341 290 20 303 279 321 192 183 212 197 212 222 1 34 28 309 269 299
316 318 314 310 303 259 249 248 242 241 237 244 217 258 270 263 258 289 276 279 251 260 248 211 158 196 322 300 32 310 336 278 306 287 221 264 199 251 196 288 217 297 296 350 8 8 358